Location: Haliburton Scout Reserve
(45.0900°N, 78.3200°W)
Time: 05:04:33
(UTC-05:00)

S-56A Canister/Altair - All Passes

Search period start: 01 March 2024 00:00
Search period end: 11 March 2024 01:00
Orbit: 640 x 2488 km, 38.8° (Epoch: 29 February)

Date Brightness Start Highest point End Pass type
(mag) Time Alt. Az. Time Alt. Az. Time Alt. Az.
01 Mar - 05:58:16 10° S 06:03:02 14° SSE 06:07:05 10° ESE visible
01 Mar - 07:59:00 10° SW 08:06:57 33° SSE 08:12:37 10° E daylight
01 Mar - 10:03:34 10° WSW 10:10:38 47° S 10:15:40 10° ESE daylight
01 Mar - 12:08:39 10° W 12:13:49 34° SSW 12:18:00 10° SE daylight
01 Mar - 14:15:56 10° SW 14:16:19 10° SW 14:16:42 10° SSW daylight
02 Mar - 05:25:12 10° SSE 05:29:32 13° SE 05:33:18 10° ESE visible
02 Mar - 07:25:08 10° SW 07:33:32 32° SSE 07:39:33 10° E daylight
02 Mar - 09:29:39 10° WSW 09:37:22 48° S 09:42:42 10° ESE daylight
02 Mar - 11:34:56 10° W 11:40:42 38° SSW 11:45:08 10° SE daylight
02 Mar - 13:41:04 10° WSW 13:43:14 13° SW 13:45:18 10° S daylight
03 Mar - 04:52:24 10° SSE 04:55:59 12° SE 04:59:13 10° ESE visible
03 Mar - 06:51:15 10° SSW 07:00:04 31° SSE 07:06:25 10° E daylight
03 Mar - 08:55:40 10° WSW 09:04:02 48° S 09:09:44 10° E daylight
03 Mar - 11:01:07 10° W 11:07:31 42° SSW 11:12:14 10° ESE daylight
03 Mar - 13:07:00 10° WSW 13:10:10 16° SW 13:13:01 10° S daylight
04 Mar - 04:20:16 10° SSE 04:22:24 11° SE 04:24:26 10° SE visible
04 Mar - 06:17:22 10° SSW 06:26:32 30° SSE 06:33:14 10° E visible
04 Mar - 08:21:37 10° WSW 08:30:39 48° S 08:36:44 10° E daylight
04 Mar - 10:27:13 10° W 10:34:19 46° SSW 10:39:21 10° ESE daylight
04 Mar - 12:33:03 10° WSW 12:37:05 20° SSW 12:40:32 10° SSE daylight
05 Mar - 05:43:31 10° SSW 05:52:57 28° SSE 05:59:58 10° E visible
05 Mar - 07:47:30 10° WSW 07:57:12 48° S 08:03:43 10° E daylight
05 Mar - 09:53:14 10° W 10:01:03 50° S 10:06:26 10° ESE daylight
05 Mar - 11:59:07 10° W 12:04:00 24° SSW 12:07:56 10° SSE daylight
06 Mar - 05:09:43 10° SSW 05:19:19 27° SSE 05:26:37 10° E visible
06 Mar - 07:13:22 10° SW 07:23:41 47° SSE 07:30:40 10° E daylight
06 Mar - 09:19:09 10° W 09:27:44 53° S 09:33:30 10° ESE daylight
06 Mar - 11:25:10 10° W 11:30:53 29° SSW 11:35:16 10° SSE daylight
07 Mar - 04:35:59 10° SSW 04:45:39 25° SSE 04:53:12 10° E visible
07 Mar - 06:39:12 10° SW 06:50:07 46° SSE 06:57:33 10° E daylight
07 Mar - 08:45:01 10° WSW 08:54:21 55° S 09:00:32 10° ESE daylight
07 Mar - 10:51:09 10° W 10:57:43 34° SSW 11:02:32 10° SE daylight
08 Mar - 04:02:20 10° S 04:11:56 24° SE 04:19:38 10° E visible
08 Mar - 06:05:02 10° SW 06:16:29 45° SSE 06:24:24 10° E visible
08 Mar - 08:10:48 10° WSW 08:20:53 57° S 08:27:33 10° ESE daylight
08 Mar - 10:17:05 10° W 10:24:31 39° SSW 10:29:45 10° SE daylight
08 Mar - 12:25:13 10° WSW 12:26:47 11° SW 12:28:16 10° SSW daylight
09 Mar - 03:28:50 10° S 03:38:12 22° SE 03:45:57 10° E visible
09 Mar - 05:30:53 10° SW 05:42:46 44° SSE 05:51:11 10° E visible
09 Mar - 07:36:31 10° WSW 07:47:22 58° S 07:54:30 10° ESE daylight
09 Mar - 09:42:56 10° W 09:51:14 44° SSW 09:56:55 10° SE daylight
09 Mar - 11:50:13 10° WSW 11:53:43 15° SW 11:56:44 10° S daylight
10 Mar - 03:55:28 10° S 04:04:25 20° SE 04:12:05 10° E visible
10 Mar - 05:56:47 10° SW 06:09:01 42° SSE 06:17:54 10° E visible
10 Mar - 08:02:12 10° WSW 08:13:46 59° S 08:21:26 10° E daylight
10 Mar - 10:08:44 10° W 10:17:53 49° SSW 10:24:02 10° SE daylight
10 Mar - 12:15:44 10° W 12:20:37 19° SW 12:24:33 10° S daylight
